CAPE
2517 2459 2540 2646 2646 2427 2005 2214 2117 2137 2309 2575 2627 2500 2442 1987 2078 2014 1940 2183 2328 2384 2269 2146 2207 1858 1866 2159 1930 1539 1689 1598 1729 1754 1872 2032 2386 2586 2082 1884 1969 1909 1947 1971 2025 1667 1916 2004 2081 2149 2015 2028 1688 1854 1867 1889 1842 1887 1904 1850 1818 1814 1708 1668 1676 1671 1781 1787 1756 1562 1690 1448 1513 1460 1369 1532 1488 1500 1714 1804 1754 1618 1592 1506 1647
2326 2283 2340 2549 2592 2405 2238 2192 2278 2164 2191 2391 2452 2453 2340 2140 2145 2174 1916 1852 1999 2109 2111 2030 1815 1850 1812 1790 1987 1704 1648 1530 1702 1730 1899 2102 2384 2884 2296 2101 1987 1862 1884 1785 1969 1770 1592 1719 1471 1926 1951 2074 1892 1823 1827 1860 1768 1826 1828 1762 1644 1604 1533 1530 1537 1447 1610 1782 1849 1811 1676 1491 1568 1540 1711 1772 1733 1770 1752 1909 1844 1730 1705 1686 1666
2191 2122 2163 2389 2532 2468 2260 2119 2168 2273 2334 2182 2142 2355 2220 2208 1656 1398 1314 1317 1516 1561 1981 1561 1932 1710 1688 1472 1714 1828 1687 1556 1704 1738 1850 2146 2331 2621 2878 2197 1988 2204 1844 1823 1950 1775 1702 1565 1520 1926 1730 1829 1995 1963 1952 1836 1648 1653 1828 1727 1650 1600 1504 1494 1422 1424 1449 1461 1500 1612 1601 1539 1620 1704 1800 1810 1837 1804 1876 1972 1928 1938 1777 1742 1760
2227 2188 1996 2178 2362 2364 2247 2138 2098 2192 2306 2143 1796 2309 1896 1823 2029 1707 1465 1710 1919 1867 2018 1678 1624 1750 1507 1437 1438 1568 1694 1593 1613 1740 1903 2134 2302 2506 2710 2199 1848 1758 2029 1814 2041 1875 1816 1626 1706 1616 1747 1931 1988 2008 1848 1888 1875 1844 1765 1829 1863 1792 1621 1516 1398 1434 1412 1519 1551 1479 1526 1555 1654 1690 1753 1773 1778 1874 1866 1678 1850 1792 1682 1847 1887
2217 2198 2648 2038 2168 2211 2154 2189 2156 2178 2194 2162 2026 2009 2411 2372 2039 1829 2012 2193 2225 2068 2210 1928 1818 1776 1609 1439 1407 1339 1694 1668 1621 1696 1894 2098 2270 2424 2542 2888 2032 1852 1839 1744 2085 2075 1880 1860 1953 1991 1885 2063 1935 1862 1886 1865 1875 1769 1708 1800 1889 1830 1710 1749 1492 1625 1496 1670 1687 1568 1551 1552 1520 1706 1710 1652 1623 1750 1584 1756 1475 1474 1564 1786 1761
2286 2259 2076 2056 2008 2062 2059 2023 2053 2095 2094 2202 2122 2177 2314 1778 1880 2059 2508 2729 2272 2217 2225 2042 1794 1774 1767 1745 1499 1390 1738 1803 1649 1710 1916 2068 2246 2362 2552 2638 2650 2528 2364 2039 1936 2002 2189 2096 2122 2076 2010 2100 2084 1652 1650 1735 1885 1818 1839 1778 1700 1866 1799 1736 1498 1736 1576 1554 1610 1712 1664 1796 1860 1711 1796 1796 1608 1452 1476 1465 1438 1486 1450 1534 1712
2351 2294 2104 1856 1861 1910 1933 1906 1872 1953 2053 2222 2240 2328 2324 2325 2280 2112 1903 1882 1873 2360 2128 1955 1817 1624 1533 1477 1464 1374 1770 1923 1681 1720 1923 2057 2171 2366 2404 2528 2516 2543 2666 2532 2309 2056 2256 2165 1926 1871 1946 1840 1920 1774 1845 1668 1807 1694 1827 1712 1925 1907 1964 1991 1750 1760 1725 1546 1572 1714 1766 1823 1866 1870 1881 1543 1582 1440 1442 1400 1420 1448 1478 1346 1490
2312 2261 2138 1856 1775 1754 1755 1792 1870 2116 2190 2320 2481 1914 1997 1902 2097 1753 1854 1911 2306 1350 1469 1774 1436 1580 1417 1372 1366 1474 1752 1916 1794 1774 1916 2035 2173 2263 2358 2403 2360 2360 2722 2418 2574 2657 2520 2238 2264 2137 2043 2085 1743 1851 1710 1630 1661 1742 1759 1728 1598 1712 1732 1784 1743 1636 1660 1566 1702 1703 1736 1642 1677 1548 1604 1467 1415 1487 1217 1332 1439 1447 1438 1492 1621
2250 2182 2138 2005 1744 1703 1701 1769 2124 2330 2281 2386 2645 2406 2008 1980 2064 2724 2184 1540 896 642 62 0 0 437 875 1144 1277 1615 1686 1908 1855 1851 2007 1982 2065 2165 2262 2270 2318 2648 2702 2424 2346 2470 2446 2494 2510 2132 2268 2053 2050 1966 1890 1928 1956 1997 2067 1748 1635 1745 1844 1781 1898 1929 1937 1919 1707 1664 1604 1469 1622 1671 1865 1907 1498 1426 1446 1372 1476 1500 1489 1456 1689
2221 2166 2092 1963 1738 1748 1681 1904 2244 2399 2320 2464 2509 2384 2332 2206 2093 2132 2054 1432 518 0 0 0 44 378 814 931 1116 1553 1612 1854 2116 2391 2039 1970 1957 2032 2169 2153 2322 2499 2575 2372 2240 2288 2414 2411 2557 2505 2186 2348 2278 2200 2117 2024 2078 2168 2085 1901 1856 1878 1872 1850 1662 1689 1909 1626 1692 1676 1632 1701 1753 1692 1756 1647 1496 1411 1516 1462 1476 1519 1519 1436 1484
2144 2114 2010 1929 1993 1810 1882 2033 2437 2328 2310 2470 2525 2536 2385 2006 2134 2062 1476 889 0 0 0 51 461 758 842 1020 1352 1409 1497 1906 2506 2289 1941 1876 1973 2261 1997 2101 2124 2284 2385 2336 2202 2204 2291 2272 2236 2354 2414 2441 2402 2326 2158 2089 2048 2012 1947 1856 1858 1880 1830 1877 1787 1714 1890 1794 1642 1709 1742 1911 1600 1561 1695 1655 1536 1531 1404 1345 1445 1504 1370 1331 1348
2061 2041 1908 1799 1855 1879 2020 2120 2434 2246 2283 2386 2454 2451 2345 2164 2018 1788 1302 398 136 92 268 732 576 794 1421 962 1082 1214 1572 2383 2249 2115 2125 1946 2063 2328 2194 2036 2026 2160 2128 2196 2250 2214 2230 2256 2391 2450 2354 2396 2514 2508 2363 2158 2098 2124 1977 1894 1969 2038 2029 2010 1997 1940 1988 1694 1756 1796 1729 1707 1710 1754 1728 1552 1456 1268 1080 1101 1328 1359 1170 713 533
2114 1949 1757 2084 1878 1798 2039 2228 2395 2236 2264 2326 2293 2299 2330 1852 2456 2558 1174 15 92 84 204 412 574 586 872 951 1058 1594 2176 2334 2127 2058 2034 1974 1912 2262 2183 2120 2044 2039 2184 2058 2144 2120 2140 2197 2210 2069 2213 2274 2319 2446 2514 2389 2210 2143 2136 2097 2112 1997 1818 1934 2073 1900 1910 1782 1662 1707 1602 1718 1694 1642 1536 1337 1372 1156 1084 1200 1210 902 755 342 143
2256 1865 1737 1766 1780 1708 1966 2337 2424 2296 2220 2316 2211 2826 2918 1978 2182 1752 948 2 20 128 219 103 75 412 778 744 924 961 2246 1891 1896 1840 1905 1904 1873 2096 2059 2080 2030 1929 1940 2020 2096 2020 2065 2099 2108 2061 2020 2020 1941 1994 2248 2250 2277 2147 2121 2100 2107 2047 1838 1795 1946 1978 1720 1858 1908 1714 1564 1405 1421 1326 1137 1241 1216 1180 934 1074 815 518 350 206 13
2082 2030 1851 1775 1754 1672 1832 2167 2386 2504 2505 2297 2514 2494 2434 2096 1960 1715 847 260 517 46 162 0 158 150 558 751 585 744 1056 1021 1206 1491 1710 1805 1847 1934 1942 1942 2011 1934 1915 1960 2016 2070 2065 2036 2021 1942 1934 1888 1938 1932 1899 2240 2442 2258 2037 2086 2124 2068 1730 1826 1751 1760 1822 1851 1816 1678 1472 1275 1159 994 1108 1176 1090 1008 1073 875 480 266 330 30 26
1893 1972 1898 1797 1814 1800 1811 2002 2325 2407 2373 2322 2310 2339 2292 2252 2087 1882 924 14 5 290 439 9 179 608 564 520 600 599 682 756 642 935 1181 1661 1806 1880 1948 1950 1890 1848 1829 1881 1926 2012 2036 2000 1962 1890 1789 1872 1806 1728 1733 1686 2192 2252 1903 1954 2034 1932 1840 1853 1554 1641 1567 1693 1656 1565 1320 1138 930 856 946 828 758 694 728 529 440 299 152 3 28
1748 1888 1982 1804 1856 1896 1848 1912 2174 2280 2381 2370 2404 2404 2288 2161 2156 1964 1267 197 0 12 430 234 227 430 510 166 486 575 657 602 266 900 846 1452 1558 1805 1986 2046 1833 1780 1910 1770 1748 1831 1891 1904 1883 1797 1803 1784 1638 1586 1628 1774 2039 2312 2287 2096 1844 1982 1738 1637 1661 1322 1286 1232 1525 1319 1232 684 785 697 634 617 579 511 514 452 181 158 152 17 27
1689 1751 1910 1792 1830 1890 1878 1909 2100 2250 2395 2402 2432 2409 2303 2128 2198 2089 1643 946 17 0 0 1544 330 727 264 88 529 548 468 86 245 606 410 1323 1515 1643 1887 2000 1987 1844 1825 1789 1654 1723 1757 1865 1892 1848 1838 1858 1762 1581 1534 1526 1692 1796 2099 2028 2037 1956 1851 1638 1358 1275 1171 1259 1049 1112 924 699 597 578 660 619 508 528 520 342 200 107 46 22 46
1815 1723 1781 1890 1794 1838 1880 1972 2126 2210 2536 2339 2381 2408 2332 2316 2264 2174 1890 1160 426 0 0 45 588 472 802 878 1228 1684 381 334 448 81 477 514 708 1142 1434 1560 1756 1744 1700 1684 1707 1688 1658 1694 1826 1779 1748 1763 1744 1619 1496 1542 1764 1888 1964 2032 1903 1962 1784 1336 1104 1215 1155 1134 933 996 947 898 666 642 642 638 411 394 372 360 168 182 93 12 22
1839 1812 1768 1896 1788 1751 1841 2125 2216 2190 2487 2398 2347 2402 2449 2456 2412 2298 2128 1537 1013 273 0 0 464 410 535 668 1035 773 500 442 330 433 425 620 694 500 584 895 1200 1417 1552 1598 1660 1710 1698 1652 1686 1696 1678 1649 1660 1592 1481 1443 1413 1584 1934 2080 1952 1860 1646 1577 1308 1148 1050 1003 1039 1031 1116 1014 782 780 641 586 371 268 287 322 292 270 178 132 182
1812 1862 1842 1830 2186 1737 1734 2114 2333 2311 2754 2451 2350 2406 2494 2508 2458 2454 2310 2054 1539 1082 561 0 78 326 652 308 296 222 541 198 151 241 525 438 334 240 704 530 640 908 1059 1228 1448 1601 1644 1682 1524 1815 1753 1751 1604 1554 1422 1438 1438 1464 1627 1693 1840 1669 1624 1604 1249 1207 1071 1160 1153 1186 1233 1014 910 962 578 395 314 282 241 247 252 249 160 168 214
1866 1839 1881 1838 2030 1988 1740 2013 2349 2394 2712 2516 2428 2470 2554 2611 2542 2507 2497 2433 2136 1635 1258 987 281 70 178 374 444 134 562 162 100 77 28 154 477 479 436 673 920 982 594 761 1124 1350 1412 1469 1562 1763 1888 1791 1578 1513 1408 1344 1420 1410 1383 1598 1905 1758 1702 1586 1332 1193 1150 1170 1197 1197 1277 1022 846 818 668 537 372 303 269 126 64 26 52 97 129
1861 1898 1877 1888 1906 2122 1934 1910 2224 2684 2896 2538 2557 2598 2668 2688 2670 2601 2660 2587 2426 2094 1628 1434 1359 1088 320 88 438 126 536 500 210 82 200 133 92 136 110 439 686 796 866 438 771 750 956 1177 1330 1345 1671 1728 1662 1489 1405 1329 1339 1400 1323 1384 1686 1803 1715 1651 1374 1190 1075 1141 1097 1124 1270 1126 990 773 534 568 432 307 142 77 84 92 92 98 270
1795 1916 1910 1906 1968 2068 2239 2087 2252 2422 2684 2688 2610 2686 2730 2708 2690 2602 2584 2548 2452 2246 1932 1666 1414 1240 901 1 90 60 0 58 104 184 123 199 250 266 208 183 335 460 510 450 577 606 690 782 975 1267 1430 1567 1642 1529 1418 1370 1400 1404 1646 1696 1594 1614 1655 1690 1510 1109 912 844 856 994 1073 950 904 642 459 507 366 188 233 219 162 167 151 167 318
1756 1855 1890 1940 2008 2033 2152 2208 2219 2298 2427 2602 2652 2651 2666 2635 2608 2573 2396 2388 2353 2247 2113 1818 1498 1281 1006 38 47 37 55 0 16 382 540 31 120 212 79 37 452 368 280 217 619 510 580 602 656 864 1185 1414 1488 1513 1428 1366 1328 1391 1710 1760 1512 1495 1463 1538 1480 1141 848 724 689 822 817 800 741 559 506 398 376 289 301 316 251 256 316 344 477
1754 1795 1886 1896 2009 2006 2151 2240 2250 2261 2345 2400 2591 2620 2632 2603 2606 2593 2447 2343 2313 2271 2171 2007 1688 1450 1262 936 89 71 93 24 14 222 586 32 52 110 152 190 66 284 12 119 114 385 609 277 389 675 826 1049 1209 1330 1328 1252 1212 1236 1461 1760 1502 1284 1352 1348 1298 1095 844 691 553 578 672 681 625 534 479 445 420 371 338 390 439 463 576 620 764
1682 1782 1807 1859 1936 1947 1996 2176 2258 2243 2371 2397 2526 2572 2655 2684 2690 2658 2575 2421 2420 2390 2248 2124 1916 1646 1424 1073 586 182 132 130 68 32 13 78 104 55 123 266 184 7 320 119 72 134 452 319 189 311 639 844 901 1090 1175 1120 1123 1080 1307 1733 1800 1191 1148 1257 1207 1059 885 657 539 498 505 539 562 546 576 495 464 398 387 487 590 600 640 743 885
1524 1617 1700 1801 1819 1854 1950 2104 2212 2291 2319 2395 2470 2551 2562 2644 2682 2675 2634 2520 2512 2499 2388 2277 2164 1935 1643 1291 1042 815 502 214 131 174 55 52 47 0 111 216 316 468 25 114 124 298 74 357 297 230 426 547 642 764 836 933 958 998 1282 1522 1713 1509 1058 1056 1105 996 851 723 554 464 443 469 442 510 599 616 652 608 577 640 770 832 825 858 870
1329 1550 1602 1697 1757 1798 1830 1955 2105 2294 2378 2413 2433 2522 2523 2574 2617 2644 2640 2642 2717 2694 2593 2504 2480 2265 1940 1628 1350 1246 1199 846 471 506 502 270 53 37 128 290 261 268 306 126 124 229 256 19 404 537 210 408 529 482 578 858 880 909 1176 1368 1478 1549 1166 918 962 948 812 665 570 414 361 380 348 330 405 507 612 710 782 707 688 760 821 759 742
1196 1472 1549 1603 1705 2100 1810 1824 1973 2192 2410 2468 2494 2510 2514 2542 2599 2630 2688 2750 2815 2826 2783 2736 2690 2577 2298 1976 1910 1842 1714 1482 993 479 556 590 382 64 43 65 140 388 254 246 388 21 289 66 40 388 157 268 273 359 332 475 501 809 1034 1004 1153 1332 1059 868 788 838 816 661 464 286 262 285 311 292 249 241 283 384 568 684 701 658 656 600 625
1157 1371 1488 1513 1600 1754 1828 1819 1872 2078 2266 2451 2550 2562 2503 2560 2564 2630 2718 2781 2821 2845 2842 2827 2798 2719 2510 2244 2238 2239 2172 1984 1743 1257 634 567 579 208 60 20 18 140 196 149 183 461 28 377 281 67 209 210 112 180 241 279 354 483 789 869 855 827 818 877 726 666 694 676 506 110 58 47 35 77 100 82 78 114 197 329 484 553 605 573 584
986 1189 1404 1465 1523 1583 1729 1796 1818 1948 2126 2300 2444 2579 2506 2548 2546 2549 2640 2698 2746 2770 2817 2870 2878 2836 2722 2475 2426 2409 2416 2386 2275 2059 1771 1351 730 514 476 188 49 25 86 450 440 484 341 401 470 502 472 419 240 242 286 284 275 442 559 598 654 585 790 1017 704 598 524 475 422 22 0 0 0 0 3 33 74 105 156 166 170 230 282 352 450
953 1136 1298 1425 1470 1538 1618 1750 1794 1856 1986 2194 2317 2466 2514 2529 2502 2515 2542 2581 2637 2687 2713 2780 2862 2882 2807 2695 2625 2562 2520 2510 2514 2442 2312 2137 1877 1368 724 469 246 30 147 440 465 476 492 498 499 496 364 258 356 295 390 352 351 402 436 547 512 444 479 610 716 470 92 0 0 0 0 0 0 0 0 0 5 50 106 132 92 30 25 40 69
981 1160 1261 1376 1454 1485 1558 1644 1757 1809 1894 2032 2168 2340 2435 2485 2492 2438 2454 2487 2572 2591 2599 2638 2715 2809 2860 2724 2646 2648 2610 2606 2590 2548 2472 2411 2280 2128 1867 1412 908 441 34 217 237 276 484 483 512 248 314 230 581 392 386 460 412 378 351 490 454 471 511 517 509 485 127 2 0 0 0 0 0 0 0 0 0 0 0 1 1 0 0 0 0
1078 1162 1263 1374 1479 1504 1530 1602 1678 1765 1858 1938 2068 2243 2345 2415 2458 2408 2386 2450 2466 2499 2507 2546 2567 2602 2694 2692 2672 2655 2570 2555 2594 2601 2504 2414 2360 2210 2064 1886 1654 1361 970 468 368 437 440 566 376 294 292 346 415 656 485 470 588 598 481 466 478 486 468 452 434 178 25 0 0 0 0 0 0 0 0 0 0 0 0 0 0 0 0 0 0
1171 1269 1298 1384 1491 1546 1554 1608 1642 1735 1822 1877 1997 2092 2230 2328 2364 2417 2427 2407 2448 2486 2508 2475 2454 2474 2509 2543 2569 2569 2502 2461 2482 2515 2553 2470 2387 2294 2207 2088 1936 1729 1520 1280 984 674 570 557 534 355 346 459 523 539 544 532 516 500 485 498 476 436 432 431 363 284 123 0 0 0 0 0 0 0 0 0 0 0 0 0 0 0 0 0 0
1210 1292 1430 1448 1516 1580 1600 1631 1660 1699 1782 1872 1948 2058 2161 2238 2306 2338 2375 2390 2405 2453 2504 2515 2505 2425 2458 2476 2492 2466 2395 2312 2324 2328 2394 2359 2315 2260 2160 2094 2016 1902 1783 1626 1462 1312 1174 1088 1005 934 838 774 707 698 693 710 730 730 710 714 690 654 585 473 402 316 151 4 0 0 0 0 0 0 0 0 0 0 0 0 0 0 0 0 0
1328 1321 1435 1580 1610 1633 1673 1704 1701 1702 1741 1818 1928 2016 2131 2228 2319 2347 2391 2401 2392 2432 2458 2492 2508 2532 2449 2470 2470 2460 2418 2366 2323 2281 2255 2210 2190 2133 2048 1980 1911 1850 1789 1688 1566 1446 1368 1330 1290 1300 1268 1256 1200 1168 1129 1024 960 916 906 864 789 734 656 591 518 458 350 258 192 56 2 0 0 0 0 0 0 0 0 0 0 0 0 0 0
1350 1374 1360 1554 1718 1752 1770 1787 1790 1779 1755 1783 1898 1996 2077 2218 2313 2410 2454 2452 2464 2458 2463 2473 2477 2449 2450 2476 2491 2468 2440 2398 2350 2300 2245 2183 2123 2071 2003 1940 1903 1835 1799 1729 1612 1502 1419 1339 1308 1270 1220 1200 1148 1128 1046 983 976 920 890 840 778 688 631 593 558 490 438 339 239 90 90 62 0 0 0 0 0 0 0 0 0 0 0 0 0
1302 1380 1426 1438 1602 1795 1846 1861 1908 1906 1869 1852 1894 1978 2073 2167 2271 2371 2459 2499 2519 2504 2509 2534 2522 2507 2559 2528 2484 2493 2464 2433 2390 2359 2322 2285 2210 2140 2094 2009 1961 1909 1854 1783 1674 1567 1478 1396 1338 1294 1228 1192 1149 1134 1082 1051 1022 984 848 770 750 720 713 686 652 627 572 490 493 375 184 50 19 6 0 0 0 0 0 0 0 0 0 0 0
1368 1424 1465 1481 1468 1576 1769 1892 1966 2003 2004 1995 1983 1999 2056 2166 2303 2359 2433 2491 2535 2560 2561 2529 2533 2584 2620 2621 2636 2635 2532 2493 2464 2453 2433 2397 2340 2274 2194 2118 2062 2025 2008 1970 1893 1828 1759 1688 1628 1563 1504 1448 1388 1358 1313 1254 1189 1129 1086 1106 1124 1063 977 937 919 867 816 734 644 555 506 436 374 342 216 119 55 0 0 0 0 0 0 0 0
1363 1482 1554 1616 1610 1566 1595 1735 1872 1979 2067 2122 2047 1979 1970 2164 2241 2346 2400 2454 2489 2536 2581 2569 2533 2550 2601 2656 2698 2551 2547 2564 2575 2586 2588 2572 2564 2517 2441 2376 2320 2321 2312 2264 2262 2146 2096 2041 1966 1839 1792 1694 1648 1552 1508 1493 1486 1533 1506 1478 1445 1451 1421 1396 1396 1331 1267 1185 1119 1038 972 828 650 580 440 336 247 124 26 1 0 0 0 0 0
1327 1408 1549 1638 1762 1762 1715 1704 1743 1840 1954 2026 2011 2068 2116 2114 2152 2340 2406 2466 2498 2586 2608 2568 2634 2618 2610 2659 2728 2713 2572 2632 2680 2697 2710 2728 2725 2715 2703 2696 2688 2650 2540 2440 2358 2396 2245 2116 2040 1954 1928 1760 1764 1720 1745 1855 2005 2123 2194 2155 2103 2071 2016 2009 2022 1978 1840 1817 1706 1680 1688 1618 1443 1304 1136 938 725 388 72 34 0 0 0 0 0
1250 1297 1394 1486 1663 1817 1913 1908 1856 1814 1871 1794 1841 1924 2021 2119 2184 2285 2430 2463 2495 2574 2612 2674 2712 2718 2724 2684 2724 2773 2828 2883 2764 2712 2720 2769 2806 2834 2848 2856 2868 2863 2870 2811 2718 2628 2506 2343 2244 2188 2175 2087 2179 2388 2562 2672 2802 2814 2750 2687 2600 2552 2523 2492 2422 2422 2377 2339 2297 2150 2066 1905 1712 1717 1642 1513 1274 974 560 128 0 0 0 0 0
1410 1283 1377 1292 1425 1546 1760 1970 2046 2036 1997 1836 1846 1872 1891 1920 1989 2074 2141 2362 2486 2541 2640 2716 2776 2808 2787 2787 2832 2856 2869 2624 2652 2788 2970 2856 2745 2755 2772 2782 2800 2842 2879 2900 2878 2827 2762 2599 2565 2582 2704 2859 2923 2969 3054 3162 3146 3089 3047 2955 2932 2878 2864 2785 2817 2752 2714 2541 2421 2312 2266 2216 2052 2073 1938 1791 1634 1530 1224 763 338 12 0 0 0
1679 1557 1359 1342 1334 1338 1409 1562 1750 1930 2083 2036 2004 1990 1995 2015 2033 2043 2024 2073 2330 2488 2597 2758 2790 2867 2852 2855 2945 2939 2938 2898 2801 2792 2778 2873 2952 2797 2762 2761 2757 2790 2814 2817 2809 2828 2802 2992 3098 3150 3231 3265 3340 3382 3452 3382 3308 3269 3210 3180 3059 2940 2876 2898 2800 2663 2583 2550 2544 2402 2438 2356 2234 2228 2134 2114 1984 1792 1776 1475 847 605 0 0 0
1892 1799 1652 1472 1416 1396 1375 1348 1349 1463 1580 1698 1926 2057 2108 2133 2156 2150 2174 2174 2145 2336 2505 2666 2736 2798 2848 2936 2962 3013 2982 3027 2973 2895 2891 2872 2858 2847 2830 2798 2816 2836 2896 2922 2912 3090 3262 3381 3422 3494 3548 3592 3616 3609 3534 3457 3404 3397 3326 3020 2931 2776 2736 2494 2252 2213 2302 2217 2243 2128 2260 2392 2373 2353 2394 2391 2342 2324 2317 2088 1660 820 468 167 30
2143 2084 1986 1838 1664 1532 1482 1451 1423 1392 1344 1321 1404 1642 1911 2079 2150 2189 2209 2228 2234 2217 2268 2436 2568 2695 2776 2865 2906 3000 2993 3004 2848 2791 2818 2870 2956 2886 2915 2883 2881 2881 2953 2964 3074 3287 3415 3555 3638 3679 3675 3662 3642 3608 3592 3543 3486 3379 3023 2902 2532 2510 2223 1993 2106 2346 2390 2482 2637 2630 2468 2516 2412 2290 2228 2180 2064 2041 2061 1982 1880 1697 1398 801 368
2397 2356 2300 2225 2127 2007 1876 1726 1577 1494 1426 1396 1378 1352 1372 1594 1808 1959 2052 2092 2102 2118 2105 2248 2388 2501 2613 2740 2815 2917 3066 3050 2827 2827 2874 2910 2928 2968 3038 3068 2992 2994 3058 3056 3256 3414 3506 3570 3657 3696 3666 3648 3675 3637 3608 3630 3620 3668 3270 3228 3305 2894 2440 2973 3206 3417 3276 3229 2767 2430 2298 2210 2168 2020 2003 1879 1773 1754 1740 1719 1671 1546 1480 857 658
2566 2569 2564 2580 2558 2493 2368 2272 2138 1952 1792 1625 1502 1475 1434 1400 1393 1536 1622 1696 1766 1808 1876 2108 2291 2440 2582 2433 2679 2920 3035 3035 2828 2837 2894 2943 2978 2997 3048 3051 3052 3081 3124 3292 3427 3567 3682 3703 3688 3742 3725 3696 3673 3659 3678 3683 3738 3807 3670 3720 3699 3498 3391 3397 3291 3144 3100 2938 2881 2513 2016 2078 1909 1696 1506 1374 1289 1152 1224 1326 1402 1392 1436 1224 796
2901 2971 3033 3062 3024 2971 2899 2810 2696 2552 2430 2295 2136 1963 1726 1580 1518 1490 1474 1515 1561 1630 1814 1984 2131 2323 2487 2469 2427 2606 2869 2898 2806 2842 2898 2950 2999 3060 3112 3088 3140 3173 3328 3493 3692 3755 3740 3828 3894 3867 3833 3792 3708 3789 4007 4020 3821 3674 3538 3376 3388 3358 3344 3160 3018 2926 2798 2608 2556 2201 1704 1586 1478 1486 1304 1053 986 990 972 890 909 992 1112 1331 1300
Wind_Speed
15 15 14 16 17 16 15 17 16 16 15 15 14 15 12 8 11 13 12 11 10 11 11 10 9 8 8 7 7 7 7 6 6 5 7 8 10 11 16 15 14 16 16 13 12 15 15 13 13 12 11 11 11 10 11 11 10 11 11 10 10 9 9 9 10 10 10 11 12 13 12 12 13 13 13 13 13 13 13 13 14 16 15 15 15
16 16 16 18 18 17 17 17 17 16 15 16 15 14 11 10 12 13 11 10 10 11 11 10 9 8 7 7 7 7 7 7 6 5 5 7 8 11 14 15 16 16 14 13 13 13 14 15 13 15 13 13 13 13 13 14 13 13 13 12 12 11 11 11 11 12 11 12 12 13 14 14 15 15 15 15 15 15 14 15 15 15 15 15 16
16 17 17 17 16 16 17 16 16 16 14 15 13 13 10 11 11 13 11 9 10 10 10 10 8 8 7 7 6 6 6 6 5 4 5 6 7 9 10 14 14 15 13 17 15 11 15 9 16 15 15 14 15 15 16 15 15 15 15 14 13 13 13 13 13 13 13 12 13 14 15 15 15 16 16 16 15 15 15 14 14 14 15 15 15
17 17 16 15 15 15 16 15 16 15 13 13 13 12 9 13 13 12 10 10 11 10 9 9 8 7 6 6 5 5 6 6 5 5 4 6 7 7 8 7 13 14 16 14 16 15 13 16 16 16 16 15 15 15 16 16 16 16 16 15 14 15 15 15 15 15 15 14 14 15 15 15 15 15 15 15 15 14 13 13 13 13 13 13 14
16 16 16 14 14 15 15 15 15 14 13 13 13 12 10 11 12 12 12 12 12 11 9 9 9 8 7 7 6 6 5 6 5 4 4 5 6 6 8 8 8 10 15 16 15 16 15 16 17 17 17 17 15 15 15 16 16 16 16 16 15 15 15 16 16 15 15 14 15 14 15 15 15 14 14 13 13 13 12 12 13 12 12 12 12
15 16 15 14 14 15 15 15 14 13 12 12 13 12 9 10 14 13 14 14 14 12 11 11 10 8 9 9 8 7 7 6 6 5 4 5 5 7 8 8 8 8 11 13 16 16 16 15 16 17 17 17 16 15 14 15 16 15 16 16 16 16 16 15 15 15 14 14 14 14 14 13 13 12 13 12 11 13 11 11 12 11 11 11 11
15 15 15 14 14 14 15 15 13 12 12 12 12 12 11 10 14 15 16 15 14 14 13 14 14 13 12 11 10 9 8 8 7 6 5 5 6 8 8 9 8 8 8 9 12 16 17 14 15 15 16 16 17 15 13 14 18 18 17 16 17 17 15 15 14 14 14 13 13 13 13 13 12 12 12 13 12 11 12 11 10 10 10 11 10
14 13 14 14 14 14 15 14 13 12 12 12 12 14 11 11 14 15 16 16 15 16 14 15 16 17 14 14 12 12 10 9 9 8 7 7 8 9 9 9 8 9 10 9 9 11 13 16 16 15 16 16 16 16 17 17 18 17 18 14 16 15 15 14 14 13 14 14 14 14 13 14 13 13 13 12 11 9 10 11 10 10 9 9 9
14 13 13 14 13 13 14 13 12 13 12 13 14 13 13 13 13 14 14 17 16 18 nan nan nan 17 16 16 14 14 13 12 12 10 9 9 9 10 10 9 10 12 10 10 10 11 12 14 15 15 16 17 17 17 17 18 19 18 15 15 15 14 13 12 11 12 14 14 15 14 14 13 12 12 11 10 10 9 9 9 9 9 8 7 7
13 12 13 13 12 13 12 12 12 12 12 12 13 12 12 13 14 15 16 15 17 nan nan nan nan 15 15 15 15 15 15 15 15 14 12 11 12 12 12 10 12 11 11 11 11 11 13 13 15 15 15 16 16 16 16 16 17 16 15 15 15 15 15 14 15 15 15 16 14 14 14 13 13 12 11 10 9 8 7 7 8 8 8 8 7
12 11 12 13 12 12 12 12 12 12 12 13 13 13 12 13 15 15 15 16 nan nan nan nan 14 14 14 13 14 15 17 18 18 16 15 14 13 13 12 12 12 12 12 12 12 13 13 13 13 13 12 13 14 14 15 15 15 15 15 15 16 16 16 16 15 16 16 15 14 15 13 13 12 12 10 8 7 8 7 7 7 7 8 7 7
12 10 11 12 11 12 13 12 13 13 14 14 14 15 14 14 14 14 14 13 12 nan 12 13 12 12 12 12 13 14 16 17 17 17 16 15 14 14 13 12 13 12 14 13 13 13 14 13 14 13 12 12 13 14 13 13 13 13 14 14 15 16 17 16 16 15 15 15 14 15 13 12 11 10 9 8 9 9 8 7 7 7 7 7 6
11 9 11 11 11 11 12 12 13 14 14 16 15 15 15 14 14 14 14 nan nan nan 10 11 12 13 13 12 13 15 16 17 17 17 17 16 14 15 13 14 13 13 13 13 14 13 13 13 13 13 13 11 11 12 13 13 13 13 13 13 14 15 15 15 15 15 15 15 15 13 12 11 10 10 11 10 10 10 9 9 9 7 6 5 6
10 9 10 11 10 11 12 13 12 13 14 13 14 14 14 14 14 13 15 nan nan 12 10 10 nan 13 13 14 14 16 16 16 18 18 17 16 16 15 14 15 15 14 14 14 14 14 14 13 13 14 13 12 11 10 10 11 10 11 11 12 13 13 14 14 15 16 16 15 15 13 13 11 10 10 10 11 11 11 10 10 8 8 7 7 nan
9 8 8 10 10 11 13 12 12 12 13 14 13 15 15 16 15 13 13 14 12 nan 10 nan 10 12 12 11 14 15 17 17 17 18 18 17 16 18 17 18 18 17 16 16 17 16 16 15 15 15 15 13 13 11 11 11 11 12 11 11 12 12 13 14 15 15 15 15 14 13 13 12 11 11 11 12 12 11 11 11 9 9 9 nan nan
8 7 7 8 8 11 11 11 12 12 13 13 14 15 15 16 15 14 11 nan nan 13 11 nan 9 9 10 12 14 13 17 18 18 18 18 19 19 19 19 20 19 18 17 19 19 18 18 17 19 18 17 16 15 15 14 13 13 14 14 14 14 12 12 14 15 16 16 15 13 14 13 13 12 13 13 13 12 11 11 10 9 9 10 nan nan
8 7 6 7 7 8 9 10 10 11 11 13 14 15 15 17 16 14 13 11 nan nan 13 10 11 10 8 9 12 14 17 18 16 17 16 17 19 18 18 20 19 18 18 19 18 18 18 18 19 20 19 19 19 18 18 16 15 15 14 14 15 16 14 14 16 17 16 15 15 15 15 13 12 13 13 13 12 11 11 10 10 11 11 nan nan
7 7 6 5 6 7 8 8 9 10 11 12 12 11 13 15 16 15 15 13 nan nan nan 12 12 10 9 nan 11 11 13 nan 13 16 16 17 16 16 18 20 18 18 17 18 18 18 17 19 18 18 18 19 19 20 19 19 18 18 16 15 17 16 15 15 15 16 15 15 15 15 14 12 12 13 12 11 11 12 12 13 13 14 nan nan nan
7 6 6 5 6 7 8 8 8 9 10 10 12 13 12 14 13 14 15 11 8 nan nan nan 10 12 12 11 11 11 10 8 13 nan 15 15 15 15 16 18 18 18 18 18 18 18 18 18 19 18 18 18 18 19 19 19 19 19 20 20 20 18 17 16 16 16 17 17 17 16 15 14 14 14 14 13 14 14 15 16 16 16 nan nan nan
7 7 7 6 6 7 8 8 9 9 9 10 13 12 10 11 12 14 12 12 11 10 nan nan 11 13 12 13 11 8 9 10 8 8 9 12 13 12 14 15 16 17 18 18 18 18 18 17 18 17 17 17 17 17 17 18 18 18 18 19 20 20 18 17 18 18 18 18 17 16 15 15 16 16 16 16 17 17 17 17 18 18 17 16 16
9 10 10 9 8 9 10 10 10 9 9 10 12 12 12 10 10 11 12 12 13 11 8 nan nan 13 10 11 8 8 8 7 7 5 5 6 12 11 13 10 12 15 15 16 16 16 16 16 16 16 16 17 17 17 17 16 16 17 17 20 21 21 19 18 18 19 19 18 17 17 17 17 18 18 19 19 19 18 19 19 19 18 18 18 16
12 13 13 13 12 11 11 12 12 10 9 10 11 12 12 12 12 11 11 12 12 12 13 10 10 nan 11 9 8 7 7 7 6 nan nan 5 9 9 9 11 13 12 10 13 14 13 13 13 14 15 15 16 16 16 15 16 15 15 17 20 21 21 20 19 19 21 21 20 19 19 19 20 20 20 20 21 20 20 20 20 nan nan nan nan 17
12 14 14 14 14 13 13 14 12 11 11 10 12 13 13 14 13 11 11 12 11 12 12 11 10 11 12 nan 11 9 9 9 9 nan 7 7 nan 10 9 8 10 12 10 8 10 11 11 11 13 14 14 14 14 13 13 14 15 16 19 20 20 20 20 21 21 23 23 22 22 22 22 22 22 22 22 21 21 21 21 nan nan nan nan nan 20
11 12 12 12 13 14 14 14 14 14 15 13 12 12 12 13 13 13 13 13 11 10 12 13 12 12 14 nan nan nan nan nan 9 8 10 11 10 11 10 7 8 10 9 7 7 9 10 11 12 13 13 13 12 12 12 13 15 20 19 20 21 22 23 24 25 24 25 24 23 23 23 23 24 24 23 23 23 22 22 22 22 22 22 22 21
11 10 11 11 11 13 14 15 15 16 16 16 15 15 15 15 16 16 15 15 14 12 11 13 12 13 15 nan nan nan nan nan nan 8 8 nan 9 11 nan nan 8 6 5 4 7 5 9 11 12 13 12 13 12 12 13 14 15 18 22 19 23 23 24 25 25 25 25 25 25 24 25 24 24 24 24 24 24 24 24 24 23 23 23 22 21
9 11 10 9 10 12 13 14 15 15 16 17 17 17 17 18 19 19 20 18 15 16 15 12 11 13 12 13 nan nan nan nan nan 8 8 nan nan 10 8 4 nan 4 nan 3 3 4 7 9 11 12 13 14 14 13 14 16 16 20 23 20 21 24 25 25 25 25 25 25 25 25 25 26 26 26 26 26 26 25 25 25 25 25 24 23 22
10 10 7 8 8 8 10 11 12 12 13 14 14 15 17 17 18 20 20 18 19 17 16 14 12 11 11 12 12 12 13 10 nan nan nan nan 9 nan 7 7 4 nan 4 3 nan 10 14 11 12 14 15 14 14 15 15 16 18 19 21 20 18 22 24 24 24 25 24 25 25 25 26 26 26 27 27 27 27 27 27 26 26 26 25 23 22
9 6 6 5 6 6 6 8 8 8 10 11 12 12 14 15 15 16 18 16 19 20 19 16 15 13 11 10 9 11 9 9 9 8 nan nan nan nan 6 5 6 7 nan 8 9 13 nan 15 12 15 15 15 15 15 15 16 16 19 21 17 16 17 22 23 24 24 25 25 25 26 26 27 27 28 28 28 27 28 28 27 27 26 26 25 25
6 5 3 3 3 3 4 4 5 5 5 7 8 9 10 11 12 14 15 15 16 19 18 19 17 14 12 11 11 10 8 6 7 7 7 6 nan nan 6 7 7 8 10 11 13 13 12 nan 13 12 13 14 14 13 13 15 16 16 15 15 16 16 20 23 24 24 25 26 26 26 27 28 28 29 29 29 29 29 30 30 29 29 28 28 28
5 4 2 1 1 1 2 2 1 1 3 4 5 7 8 8 9 10 11 11 13 13 15 17 18 16 14 11 10 10 7 6 8 8 7 8 7 nan nan nan 8 12 11 14 17 nan 13 nan nan 11 8 11 11 12 12 14 15 17 16 17 17 18 22 24 25 26 26 27 27 28 28 28 29 30 30 30 31 31 31 31 31 31 31 31 30
5 4 4 4 3 2 1 1 2 2 2 3 4 5 7 7 9 9 9 10 10 12 12 14 15 15 16 14 11 10 7 7 7 7 8 7 8 6 nan nan nan 11 12 11 15 12 nan 9 10 nan 10 11 11 12 13 14 15 18 17 18 19 22 24 23 26 27 28 29 29 29 nan nan nan nan nan nan nan 33 33 34 34 33 33 32 31
6 5 5 5 6 5 5 4 4 4 4 4 5 6 7 6 8 8 9 10 10 10 10 10 11 13 15 16 14 11 7 6 8 8 9 8 7 7 6 7 nan nan nan 11 14 19 8 10 10 9 11 12 12 14 15 15 16 21 19 19 21 21 21 21 26 28 29 30 31 nan nan nan nan nan nan nan nan 35 35 35 35 34 33 32 32
8 7 5 5 7 7 6 6 5 5 5 5 6 6 6 6 7 8 9 10 10 8 8 8 9 11 13 15 15 12 6 6 6 7 8 9 7 7 6 7 8 nan 10 11 13 17 11 9 10 10 8 10 12 16 17 17 17 19 21 21 21 22 22 22 23 29 nan nan nan nan nan nan nan nan nan nan nan nan 35 35 nan nan nan nan nan
9 8 7 8 8 8 8 7 7 6 5 5 7 7 6 6 6 7 8 9 8 7 7 7 8 8 9 12 14 13 8 7 5 6 7 7 7 7 8 8 9 9 nan 10 12 11 16 8 9 9 10 12 13 14 19 18 18 19 21 22 22 23 23 23 24 25 31 nan nan nan nan nan nan nan nan nan nan nan nan nan nan nan nan nan nan
10 9 9 9 9 9 8 8 7 7 6 6 7 7 5 5 6 6 7 8 7 6 6 6 6 6 7 9 11 11 8 6 5 5 5 6 6 7 9 7 9 10 9 11 10 12 14 13 10 11 12 13 16 14 16 16 17 18 20 22 24 24 25 25 25 26 nan nan nan nan nan nan nan nan nan nan nan nan nan nan nan nan nan nan nan
12 11 11 10 10 9 8 8 7 7 7 6 7 6 5 5 5 5 6 6 6 5 5 5 5 5 6 6 9 9 9 7 4 4 4 4 6 6 7 7 8 9 8 8 11 11 10 11 10 10 9 11 13 14 15 16 18 20 22 22 24 26 27 29 30 29 32 nan nan nan nan nan nan nan nan nan nan nan nan nan nan nan nan nan nan
14 13 12 12 10 9 8 7 7 7 6 6 6 5 4 3 3 3 4 5 4 4 4 3 4 5 5 6 6 7 9 7 5 4 3 5 4 4 6 6 8 7 6 8 9 9 10 11 10 9 10 13 13 14 19 19 20 21 21 24 27 28 28 29 30 32 32 nan nan nan nan nan nan nan nan nan nan nan nan nan nan nan nan nan nan
15 15 13 14 10 8 7 7 7 7 7 6 6 6 6 5 4 3 3 4 4 4 3 3 3 3 3 4 4 6 8 9 6 5 5 5 4 5 6 7 7 6 7 7 7 8 9 10 9 9 13 14 14 18 22 24 21 20 21 23 26 29 29 29 32 33 34 34 35 nan nan nan nan nan nan nan nan nan nan nan nan nan nan nan nan
15 15 14 12 9 8 7 7 7 8 8 8 7 7 6 6 5 5 4 4 4 5 4 3 2 2 2 2 4 5 6 7 5 4 4 5 5 5 6 6 6 7 7 7 8 8 9 9 9 11 11 16 19 15 20 27 25 25 23 21 23 31 32 33 31 34 36 36 37 nan nan nan nan nan nan nan nan nan nan nan nan nan nan nan nan
15 14 13 11 10 9 8 7 7 9 9 8 9 9 7 7 7 6 5 5 5 5 4 4 3 3 3 3 3 5 5 5 5 3 4 3 3 4 4 4 5 5 5 5 7 7 8 9 9 9 12 13 16 19 21 26 25 27 32 31 26 25 30 34 35 34 35 38 38 39 41 nan nan nan nan nan nan nan nan nan nan nan nan nan nan
15 14 12 11 9 8 7 7 7 9 8 8 10 10 9 8 8 6 6 5 5 5 5 5 5 5 5 5 4 5 4 2 4 4 4 4 2 3 5 4 4 5 4 5 7 8 9 10 10 12 13 15 18 20 22 28 31 28 30 37 31 30 30 30 31 37 37 39 39 38 39 43 44 45 47 47 nan nan nan nan nan nan nan nan nan
14 13 12 9 9 8 7 7 7 8 7 8 9 11 11 9 9 7 6 5 5 5 5 6 6 7 6 7 5 1 1 2 3 5 7 8 9 6 6 4 6 7 8 8 10 13 13 13 14 16 16 17 20 23 24 26 28 30 32 35 33 31 33 32 29 35 39 42 40 39 38 44 47 46 48 47 49 54 nan nan nan nan nan nan nan
13 12 11 9 9 8 7 7 7 7 6 8 9 12 12 12 10 8 7 6 7 6 7 6 5 7 9 8 7 4 1 1 3 5 6 8 8 10 12 11 10 11 10 11 13 15 15 15 15 16 19 17 18 22 23 22 26 29 32 35 37 35 36 35 29 29 43 45 44 41 36 44 49 47 45 46 50 56 nan nan nan nan nan nan nan
13 13 10 9 8 8 9 8 8 7 6 7 10 11 11 12 11 8 9 8 8 8 8 8 7 8 8 9 9 8 6 3 3 2 2 5 8 9 12 12 13 15 17 17 15 16 18 17 16 18 19 19 19 23 26 28 28 31 35 38 39 40 37 39 37 33 37 49 46 45 41 46 53 51 47 49 55 60 59 54 nan nan nan nan nan
14 12 10 10 9 8 7 7 7 7 8 10 12 12 12 12 12 9 7 7 8 8 8 7 6 6 7 8 8 8 7 1 2 4 4 3 7 12 13 14 14 17 19 21 21 20 19 19 18 17 22 22 21 23 29 30 32 31 35 37 39 41 42 38 37 35 38 51 51 47 43 45 58 55 52 51 60 69 60 55 57 nan nan nan nan
13 11 11 10 10 9 8 8 8 8 9 11 14 13 12 13 13 12 9 7 6 6 6 7 7 6 7 8 9 8 8 6 6 6 5 4 5 9 11 12 12 15 20 22 22 23 23 23 21 20 22 27 24 24 28 33 34 35 37 37 40 41 42 40 39 39 39 52 50 46 43 42 55 55 52 51 66 71 62 53 55 56 nan nan nan
12 11 11 11 10 10 9 10 9 9 11 11 14 14 13 14 14 14 11 9 7 6 6 6 6 6 7 9 8 8 6 7 7 6 7 7 8 10 11 12 16 18 22 24 26 27 28 29 28 26 25 26 27 27 29 34 38 39 41 41 40 44 49 41 36 37 35 43 47 48 45 39 51 53 48 49 62 60 60 54 56 55 56 56 nan
12 13 13 13 11 11 11 11 11 8 11 12 14 14 14 14 16 14 11 9 9 8 8 8 8 9 8 8 8 8 7 7 4 6 7 8 11 10 10 13 14 18 22 26 28 30 32 33 33 31 30 31 32 32 33 35 38 41 43 43 45 53 55 43 37 34 37 42 51 51 47 43 46 48 43 46 59 55 53 51 56 62 59 58 57
10 11 10 12 12 13 13 12 10 9 11 13 16 15 15 17 17 13 11 12 11 10 8 9 10 9 8 7 8 8 8 7 5 8 10 12 11 10 13 14 16 18 21 25 29 32 34 34 34 33 32 30 29 30 31 33 38 40 44 42 43 58 55 47 41 39 39 42 49 54 50 45 44 48 44 45 51 50 50 49 48 53 58 61 55
7 8 11 11 12 13 12 12 13 13 13 15 18 17 18 20 17 13 12 13 12 10 10 10 11 11 7 4 5 7 8 6 5 10 13 16 16 15 16 15 16 19 21 24 25 28 34 33 32 31 30 27 25 25 26 29 33 42 53 48 43 54 57 55 49 45 41 41 44 55 52 47 44 50 46 45 47 45 43 43 43 47 59 62 56
6 8 9 10 10 12 13 12 11 11 13 15 18 19 20 21 17 12 12 14 13 12 13 12 12 12 10 9 5 4 5 5 6 11 15 19 18 19 18 17 18 19 23 23 23 24 28 31 31 30 26 26 27 29 29 30 35 41 51 53 48 50 52 52 52 50 45 45 47 58 52 46 47 49 52 49 46 43 44 41 41 47 57 60 55
Wind_Direction
89 90 94 94 96 97 93 93 92 89 93 92 88 92 94 84 66 81 79 79 77 74 64 60 58 57 55 59 62 64 66 70 71 80 82 80 83 76 57 55 63 72 67 64 80 90 78 70 64 60 60 62 62 65 64 64 62 60 59 60 62 67 72 73 73 73 71 70 69 72 79 79 79 81 81 82 82 82 81 80 79 77 81 84 86
87 86 85 90 92 96 96 93 94 95 93 90 88 85 82 70 87 77 75 80 74 71 68 61 59 57 58 57 59 62 65 63 65 78 89 85 85 92 76 59 46 59 73 73 65 72 94 97 101 80 65 65 67 66 67 66 66 67 67 67 69 70 71 73 73 72 70 69 66 70 69 72 76 77 79 79 78 77 79 77 79 82 81 82 82
88 87 86 87 88 91 94 96 98 97 91 89 87 81 82 77 66 71 75 77 74 68 64 61 57 55 54 50 54 58 62 65 63 63 75 85 92 98 92 76 71 64 54 57 62 57 74 72 82 88 80 72 69 70 70 69 69 70 70 72 73 74 73 71 73 73 71 66 69 67 70 72 75 75 75 76 78 79 82 84 83 83 82 82 80
88 88 85 85 87 88 94 98 97 97 90 88 85 78 78 85 72 69 70 77 77 66 59 53 50 48 42 43 42 51 60 66 61 53 63 79 93 98 105 104 86 84 82 67 70 59 55 65 70 77 86 78 74 72 73 74 74 74 72 72 70 70 69 69 69 70 71 69 66 68 70 72 72 75 77 79 81 82 81 82 82 84 87 86 86
89 85 84 81 81 83 87 88 91 92 91 87 84 77 53 68 76 72 76 70 70 64 54 51 43 39 36 36 41 43 54 65 71 59 55 67 88 92 104 95 89 76 89 93 86 80 62 59 65 68 69 76 76 76 77 78 79 77 77 74 70 68 65 64 65 67 68 69 70 70 72 74 74 76 80 81 80 80 78 79 81 85 88 92 91
87 83 82 78 76 75 76 80 82 85 88 86 83 77 65 56 76 69 65 63 66 66 59 60 57 52 51 48 49 53 55 63 76 81 74 74 82 90 95 107 107 95 83 79 88 84 79 70 64 66 69 73 76 82 86 86 77 77 78 77 75 71 70 68 67 65 68 68 68 69 70 73 75 73 76 77 76 81 85 86 95 95 94 93 91
85 80 79 77 75 73 73 73 75 77 83 85 79 87 80 59 51 57 64 68 71 68 60 62 66 61 57 54 51 53 59 63 76 85 87 81 72 84 95 105 112 110 103 92 81 81 83 80 81 86 85 84 93 88 89 91 97 91 81 77 76 72 70 70 69 68 65 65 67 69 69 70 73 74 74 76 80 85 94 93 89 89 90 90 91
86 81 77 75 73 71 71 68 67 72 78 82 82 74 75 72 69 61 64 76 76 77 67 64 65 68 61 56 52 50 57 63 70 80 92 84 82 81 96 102 108 108 99 99 90 87 84 78 74 70 74 76 76 84 85 86 88 87 90 93 92 95 88 80 77 76 75 74 75 73 77 75 74 75 77 78 78 75 73 76 74 72 71 70 68
88 82 77 74 72 71 70 66 67 70 74 77 76 76 65 64 67 71 76 79 80 79 nan nan nan 68 62 55 55 53 58 64 68 77 80 81 85 85 89 98 100 94 96 89 87 83 90 91 84 73 72 74 65 68 75 75 79 87 90 94 91 90 88 84 82 84 84 76 75 79 78 79 78 79 78 76 77 67 62 63 60 55 48 43 35
90 86 81 78 74 72 70 66 68 74 77 75 76 79 79 74 73 79 80 79 76 nan nan nan nan 66 65 62 60 62 66 70 72 73 81 81 83 84 85 93 87 93 90 86 83 81 85 90 95 92 78 73 73 67 67 70 73 77 78 73 72 72 77 78 78 79 80 81 82 81 82 79 77 72 68 68 71 59 47 42 38 33 20 17 14
94 89 84 83 81 79 76 71 75 77 76 76 77 81 82 83 75 78 89 87 nan nan nan nan 60 59 60 63 62 66 70 73 76 78 82 83 84 85 85 84 85 86 86 85 84 82 81 83 87 87 86 85 79 75 70 70 69 66 67 62 62 62 67 69 72 74 75 76 72 76 76 75 70 65 57 58 34 16 22 29 27 18 7 357 356
95 90 83 82 81 82 79 79 80 80 77 79 82 84 81 82 80 76 90 99 95 nan 67 60 62 65 60 64 67 68 70 75 80 82 82 82 81 80 81 82 81 84 82 85 85 84 84 85 84 83 82 79 77 75 73 73 73 69 69 64 64 63 63 64 64 65 66 67 64 61 61 61 58 50 41 24 5 8 15 17 11 360 356 359 358
98 92 82 81 80 83 83 84 83 84 84 84 87 86 87 86 84 90 88 nan nan nan 77 67 66 75 74 70 74 75 72 73 78 82 83 83 82 80 79 79 80 82 82 84 85 87 86 85 83 81 78 74 76 78 78 77 72 69 66 66 63 61 60 62 59 60 61 58 54 49 44 37 34 28 22 15 6 6 2 6 2 360 359 356 353
101 92 85 77 76 80 81 80 81 84 87 96 95 91 87 87 84 94 101 nan nan 85 75 78 nan 73 74 79 81 80 74 72 75 80 82 81 81 82 80 79 79 78 80 81 82 85 86 85 85 84 82 77 73 73 76 79 80 83 74 68 67 61 55 53 52 50 51 50 46 37 33 24 26 28 25 7 2 6 5 6 6 5 1 357 nan
102 97 86 79 76 78 81 84 83 86 89 90 91 87 85 80 78 80 94 103 96 nan 76 nan 67 77 75 82 86 88 84 84 82 81 80 80 79 78 79 79 78 76 75 76 76 77 78 79 80 80 80 78 77 72 71 69 70 70 64 64 69 74 63 50 48 47 47 46 45 40 29 24 23 26 17 12 9 12 11 3 1 359 360 nan nan
100 95 90 80 73 75 82 83 84 84 83 85 86 86 85 84 82 83 83 nan nan 81 80 nan 68 51 91 93 84 82 94 88 87 87 82 78 75 76 75 77 76 74 71 72 72 71 70 69 70 68 68 67 68 66 63 58 59 64 64 58 52 53 59 63 53 44 45 46 39 35 31 33 34 33 29 23 24 19 16 10 1 358 358 nan nan
96 88 81 72 71 74 76 81 85 86 87 86 86 83 80 80 76 75 74 75 nan nan 88 88 73 92 55 82 99 95 85 90 96 92 89 82 79 74 75 74 74 71 69 70 71 69 69 66 65 64 60 59 57 56 54 51 51 52 56 61 55 37 50 54 59 49 46 46 33 34 38 40 36 38 37 30 26 22 20 16 10 8 5 nan nan
96 89 81 73 64 67 72 78 82 87 86 87 90 94 85 81 78 72 71 82 nan nan nan 93 80 73 86 nan 78 81 84 nan 98 99 101 89 87 77 75 75 74 73 70 70 70 69 66 68 62 58 54 54 53 55 53 51 49 50 47 50 66 49 37 44 52 49 46 47 42 33 36 31 35 39 38 36 32 27 24 21 19 15 nan nan nan
97 89 82 72 61 63 67 71 75 79 88 90 88 84 84 83 86 80 77 79 83 nan nan nan 98 82 79 87 93 97 81 81 89 nan 112 106 94 86 80 77 76 74 72 71 70 70 68 67 65 60 55 51 50 52 52 51 48 49 51 50 53 50 37 35 34 41 44 44 40 34 33 32 34 38 40 41 41 33 30 27 24 23 nan nan nan
96 89 81 72 56 57 62 64 64 67 73 74 78 82 87 87 81 83 84 77 74 72 nan nan 70 82 78 85 96 98 94 107 85 70 93 106 109 103 91 88 82 78 74 72 68 66 67 63 63 61 56 51 48 46 46 47 46 46 47 48 49 51 42 32 32 34 41 40 40 34 32 32 35 35 39 40 40 35 30 28 24 23 22 19 19
97 88 82 74 68 55 55 59 60 61 65 68 74 74 69 68 70 76 76 77 76 78 79 nan nan 80 77 88 96 103 99 107 102 113 95 102 106 104 102 104 88 83 76 73 70 66 64 62 60 57 53 49 43 42 43 41 41 43 45 47 49 48 43 31 30 35 37 40 40 34 32 34 34 35 36 37 35 34 29 26 25 23 21 21 21
103 95 87 79 70 59 54 55 58 60 64 62 65 67 70 68 64 63 68 69 74 72 71 72 71 nan 86 86 78 104 101 97 98 nan nan 106 92 100 95 92 96 89 75 68 66 64 61 58 54 51 47 43 38 37 39 41 40 42 45 47 49 50 46 36 35 38 40 39 39 38 34 36 36 37 37 34 32 31 29 26 nan nan nan nan 25
108 97 88 79 71 62 55 56 58 61 62 57 59 62 65 65 65 61 61 61 66 68 77 77 74 75 78 nan 71 63 60 62 65 nan 64 73 nan 96 93 80 80 93 85 74 64 59 53 48 47 43 36 37 34 37 41 44 46 46 48 49 50 51 50 44 40 42 41 39 38 37 36 35 36 36 35 32 31 30 29 nan nan nan nan nan 29
112 105 94 83 74 66 58 53 57 58 61 61 61 60 63 63 63 60 61 61 62 61 67 71 71 76 79 nan nan nan nan nan 68 57 56 71 63 75 79 92 88 68 84 92 66 54 46 41 35 33 30 34 38 43 48 50 53 52 52 50 49 50 49 46 43 40 40 38 35 36 35 35 34 34 33 32 32 31 31 31 30 31 31 32 32
125 112 100 83 78 68 60 56 59 61 62 61 62 59 59 61 60 58 56 53 53 51 56 64 63 66 72 nan nan nan nan nan nan 65 75 nan 68 75 nan nan 78 91 85 71 72 54 38 40 34 34 36 41 48 48 51 53 54 50 49 49 47 47 45 43 42 40 39 38 36 34 35 35 33 31 31 33 33 33 32 31 31 31 32 31 30
116 94 90 81 77 70 63 60 58 57 58 58 58 58 57 58 58 57 55 55 52 50 55 58 64 71 75 74 nan nan nan nan nan 63 57 nan nan 61 67 68 nan 67 nan 72 68 68 65 53 51 53 55 54 55 53 52 52 52 49 45 46 43 42 42 41 41 40 39 38 36 34 33 33 33 32 30 29 30 30 29 29 29 29 28 27 25
108 102 97 78 72 68 63 63 59 54 54 55 56 54 54 55 55 56 57 52 49 49 53 52 57 61 66 68 70 71 71 65 nan nan nan nan 44 nan 26 61 78 nan 58 51 nan 50 69 85 63 62 61 60 56 53 50 49 50 46 44 43 43 39 39 39 38 37 36 35 33 32 30 29 28 29 28 26 24 25 25 24 24 24 24 22 19
125 126 107 93 76 69 70 66 60 52 48 46 44 46 44 45 48 48 51 48 45 44 48 47 55 57 58 64 68 71 61 61 59 58 nan nan nan nan 21 18 48 91 nan 80 79 83 nan 71 81 62 57 55 55 51 50 48 47 42 40 39 37 36 36 36 34 33 32 30 28 27 26 25 24 24 24 24 21 19 20 19 19 18 17 15 13
141 147 132 109 97 87 81 73 56 50 37 31 27 27 25 30 34 36 42 39 40 41 41 40 48 51 56 52 59 67 61 47 55 56 51 51 nan nan 37 35 30 71 93 92 86 82 87 nan 71 77 53 52 50 45 42 42 40 32 30 31 29 28 28 29 29 28 27 26 24 23 22 21 21 20 21 21 20 18 17 16 16 16 14 12 10
170 179 182 188 150 100 88 83 63 10 17 355 354 355 355 5 12 19 26 24 33 39 38 38 42 41 50 55 58 64 55 40 45 47 47 52 53 nan nan nan 45 64 72 90 95 nan 78 nan nan 69 54 50 45 41 33 38 33 29 24 23 23 24 26 24 24 23 22 22 22 20 20 19 18 17 16 16 16 16 15 14 13 12 12 10 9
192 207 226 232 246 241 223 217 254 295 297 317 316 319 329 334 357 3 359 3 16 30 33 32 38 33 39 47 48 60 51 51 49 48 51 49 54 53 nan nan nan 61 68 74 97 86 nan 65 61 nan 51 41 33 33 29 28 26 25 23 20 20 27 26 20 20 20 18 18 17 17 nan nan nan nan nan nan nan 11 11 11 10 8 7 6 6
205 222 228 237 249 257 247 248 256 264 278 287 293 304 307 319 321 341 338 343 359 17 25 25 34 30 33 40 42 46 44 41 55 54 52 54 50 51 47 50 nan nan nan 64 71 85 58 66 66 50 35 32 21 23 27 23 16 20 16 14 15 14 12 11 15 16 16 15 14 nan nan nan nan nan nan nan nan 8 7 6 5 4 3 2 2
222 230 238 245 255 262 266 266 271 280 287 280 281 285 298 309 316 318 320 332 350 1 4 20 27 30 30 36 40 39 22 35 46 54 58 54 48 51 43 40 47 nan 40 47 63 81 73 38 48 49 29 16 21 14 18 15 12 8 9 7 5 5 5 3 2 9 nan nan nan nan nan nan nan nan nan nan nan nan 3 2 nan nan nan nan nan
229 235 246 243 251 266 266 278 280 286 287 292 284 283 298 311 316 315 338 339 339 354 342 11 19 18 23 34 37 32 10 31 32 46 50 51 47 47 47 36 40 40 nan 38 54 58 82 23 41 24 34 9 28 2 9 9 11 0 0 358 357 360 0 360 357 356 6 nan nan nan nan nan nan nan nan nan nan nan nan nan nan nan nan nan nan
226 233 239 245 254 262 269 274 282 283 291 289 284 291 312 323 326 319 317 322 335 341 342 3 14 360 16 29 35 21 352 8 27 40 33 48 45 47 50 42 48 45 32 34 38 57 71 74 23 39 22 10 12 18 4 4 4 355 355 353 355 352 351 353 354 352 nan nan nan nan nan nan nan nan nan nan nan nan nan nan nan nan nan nan nan
227 230 237 245 250 258 268 273 279 282 285 289 292 303 331 333 338 340 322 321 326 331 337 349 353 340 1 15 32 14 345 356 17 26 27 26 33 41 47 46 46 52 40 25 36 43 51 66 43 28 23 11 13 3 357 353 354 352 350 346 343 349 348 347 350 350 353 nan nan nan nan nan nan nan nan nan nan nan nan nan nan nan nan nan nan
224 232 235 244 250 258 265 277 281 287 300 302 309 309 317 326 339 328 320 312 312 318 323 332 328 333 339 4 26 341 339 356 353 13 12 27 30 25 39 40 45 50 33 31 38 30 39 37 42 18 359 3 1 352 338 346 348 346 342 342 341 342 343 345 344 346 354 nan nan nan nan nan nan nan nan nan nan nan nan nan nan nan nan nan nan
225 229 240 242 252 261 267 276 285 295 299 304 314 320 311 310 314 312 297 291 292 290 294 299 312 316 331 349 348 330 342 337 346 338 341 13 4 21 28 36 40 28 30 31 28 29 24 28 17 12 354 355 357 350 335 334 342 340 335 335 334 336 336 340 344 342 339 339 337 nan nan nan nan nan nan nan nan nan nan nan nan nan nan nan nan
226 229 236 243 244 253 264 273 287 294 298 303 303 308 312 314 319 314 298 289 278 270 273 280 284 294 310 300 304 314 329 327 331 339 333 344 350 14 15 27 24 20 19 15 11 17 14 19 8 357 353 342 342 352 330 326 334 333 332 335 339 329 332 339 344 339 337 339 344 nan nan nan nan nan nan nan nan nan nan nan nan nan nan nan nan
224 228 233 237 237 244 260 272 281 283 291 297 298 299 307 317 318 315 304 292 281 270 263 261 258 251 253 263 285 295 305 305 312 319 328 359 338 25 13 9 16 15 18 1 359 358 4 2 358 355 344 342 334 335 323 320 327 330 327 330 341 340 335 335 341 340 334 331 333 334 341 nan nan nan nan nan nan nan nan nan nan nan nan nan nan
223 225 226 229 237 247 256 268 275 279 287 292 286 293 307 324 319 318 313 296 284 271 263 259 255 248 239 236 248 265 286 347 1 359 358 2 348 42 66 356 20 357 5 352 342 343 347 351 354 342 347 346 339 332 333 329 331 338 322 325 336 335 331 331 337 333 331 329 326 329 330 328 326 324 324 325 nan nan nan nan nan nan nan nan nan
227 228 227 231 238 250 260 265 270 269 273 270 290 323 324 318 320 310 306 300 287 270 262 255 258 261 250 240 236 248 356 47 41 32 35 34 37 41 70 357 354 343 341 349 347 339 343 347 350 343 348 350 339 335 334 333 328 325 328 329 334 332 324 329 337 332 327 325 324 326 331 323 321 323 323 326 323 321 nan nan nan nan nan nan nan
231 231 233 238 244 250 262 265 274 267 265 265 304 311 332 341 322 310 304 287 273 268 261 255 247 253 254 254 245 247 241 150 84 59 49 40 42 49 55 48 15 2 6 5 1 354 350 359 356 350 345 349 345 336 336 337 331 338 335 332 332 328 329 327 336 330 323 322 321 328 336 323 319 323 327 327 323 317 nan nan nan nan nan nan nan
233 232 237 245 249 253 255 266 271 276 272 282 301 314 327 336 329 308 279 271 268 263 258 255 248 250 252 251 252 247 236 225 230 238 38 41 34 36 44 41 28 13 360 357 356 345 345 346 353 350 341 342 354 337 331 331 338 337 335 333 333 329 331 328 330 336 321 316 322 324 330 324 319 323 328 329 323 315 310 317 nan nan nan nan nan
235 237 241 247 252 258 265 274 274 277 273 290 306 318 324 328 334 316 279 276 267 263 263 262 260 260 253 249 244 241 228 219 226 227 230 280 347 18 26 30 25 9 1 7 4 350 335 341 344 350 339 344 351 346 336 337 335 336 332 331 328 325 323 326 334 335 329 318 319 321 324 325 318 322 326 328 312 305 313 325 330 nan nan nan nan
238 240 247 253 256 264 269 271 268 264 270 286 305 316 320 323 324 311 277 277 271 271 282 275 272 268 265 255 244 230 234 236 238 243 253 283 303 318 334 335 336 351 350 357 359 357 349 336 343 351 352 341 352 348 339 333 335 337 332 331 328 325 322 325 331 336 328 316 323 318 320 325 315 316 321 319 308 312 319 328 329 327 nan nan nan
245 249 253 257 260 265 267 266 262 261 261 287 298 310 315 317 317 305 274 268 265 275 286 295 294 279 266 257 243 228 219 235 240 262 274 293 308 317 327 330 330 328 327 328 331 329 330 331 347 353 351 347 347 349 340 334 335 335 330 328 326 319 309 315 332 330 325 318 319 317 320 320 311 316 319 316 309 314 318 328 327 324 323 324 nan
241 243 246 253 261 264 263 262 261 267 263 289 295 301 305 304 306 284 277 271 269 274 284 292 289 277 269 259 246 236 224 227 244 314 323 308 306 325 340 329 331 331 328 331 338 337 334 335 339 342 342 344 345 342 339 333 329 327 321 321 321 310 309 328 332 328 326 323 323 324 318 316 316 317 316 311 306 313 315 316 321 325 326 320 317
244 247 252 253 253 255 258 261 264 258 258 279 293 298 300 303 290 274 274 267 270 278 287 287 283 278 270 261 251 233 228 232 264 315 331 326 314 334 321 325 323 324 323 318 329 341 345 347 349 350 352 353 351 350 346 341 331 326 314 321 328 313 321 331 333 330 331 324 323 321 318 317 320 316 314 312 311 314 313 315 312 319 319 311 313
244 247 248 249 252 254 258 257 257 252 254 270 290 295 301 304 300 286 270 270 274 282 280 277 271 266 265 289 260 237 236 245 292 321 327 316 308 316 314 319 322 318 312 310 315 325 336 344 346 348 351 350 349 347 340 335 335 324 318 326 330 318 325 328 330 329 325 323 327 318 314 319 320 315 317 314 311 314 319 318 317 309 304 308 313
240 245 251 254 259 259 259 259 269 269 255 264 285 292 299 303 300 277 275 270 276 274 268 264 262 257 251 253 282 274 263 280 322 316 323 313 306 309 312 309 307 308 306 312 321 323 320 319 322 324 327 331 328 323 327 340 339 330 324 327 327 325 327 329 330 328 324 326 330 319 318 321 323 322 320 315 317 323 321 319 314 307 301 303 308